This is the latest recevied weather packets stored in our database for station/object WW5JC. If no packets are shown the sender has not sent any weather packets the latest 10 day(s).
| Time | Temp. | Humidity | Pressure | Rain* | Wind** | Luminosity | Snow |
|---|---|---|---|---|---|---|---|
| 1777853359 | 24.44° C | 47% | 1017.1 hPa | 0 mm | - | 43 W/m² | - |
| 1777853055 | 25° C | 46% | 1017.1 hPa | 0 mm | - | 60 W/m² | - |
| 1777852753 | 25° C | 47% | 1017.2 hPa | 0 mm | - | 68 W/m² | - |
| 1777852451 | 25° C | 45% | 1017.2 hPa | 0 mm | - | 78 W/m² | - |
| 1777852148 | 25° C | 46% | 1017.4 hPa | 0 mm | - | 85 W/m² | - |
| 1777851846 | 25.56° C | 45% | 1017.3 hPa | 0 mm | - | 95 W/m² | - |
| 1777851543 | 25.56° C | 47% | 1017.1 hPa | 0 mm | - | 107 W/m² | - |
| 1777851239 | 25.56° C | 44% | 1017.3 hPa | 0 mm | - | 117 W/m² | - |
| 1777850936 | 25.56° C | 45% | 1017.3 hPa | 0 mm | - | 127 W/m² | - |
| 1777850633 | 25.56° C | 44% | 1017.4 hPa | 0 mm | - | 140 W/m² | - |
| 1777850331 | 25.56° C | 43% | 1017.3 hPa | 0 mm | - | 153 W/m² | - |
| 1777850028 | 26.11° C | 43% | 1017.4 hPa | 0 mm | - | 165 W/m² | - |
| 1777849724 | 26.11° C | 43% | 1017.2 hPa | 0 mm | - | 176 W/m² | - |
| 1777849421 | 26.11° C | 43% | 1017.4 hPa | 0 mm | - | 191 W/m² | - |
| 1777849119 | 26.11° C | 42% | 1017.4 hPa | 0 mm | - | 204 W/m² | - |
| 1777848814 | 26.11° C | 43% | 1017.2 hPa | 0 mm | - | 219 W/m² | - |
| 1777848511 | 26.67° C | 42% | 1017.4 hPa | 0 mm | - | 226 W/m² | - |
| 1777848208 | 26.67° C | 43% | 1017.5 hPa | 0 mm | - | 249 W/m² | - |
| 1777847906 | 26.67° C | 45% | 1017.6 hPa | 0 mm | - | 260 W/m² | - |
| 1777847603 | 26.67° C | 41% | 1017.5 hPa | 0 mm | - | 274 W/m² | - |
| 1777847298 | 26.67° C | 45% | 1017.4 hPa | 0 mm | - | 289 W/m² | - |
| 1777846997 | 26.67° C | 41% | 1017.6 hPa | 0 mm | - | 306 W/m² | - |
| 1777846694 | 26.67° C | 42% | 1017.5 hPa | 0 mm | - | 321 W/m² | - |
| 1777846393 | 27.22° C | 43% | 1017.5 hPa | 0 mm | - | 342 W/m² | - |
| 1777846088 | 27.22° C | 41% | 1017.4 hPa | 0 mm | - | 374 W/m² | - |
* Rain latest hour (hover to see other rain measurements)
** Current wind speed in m/s (hover to see current wind gust speed)